OBJECT PU (43870 NORAD) Tracking and Keplerian Element Data

This shows tracking and keplerian element data for the satellite.

Feedback or suggestion? Click here.




ElementValue
Catalog43870
NameOBJECT PU
Epoch Orbit398
Epoch Day16.38592259
Epoch Year2019
RAAN36.184
Inclination51.6432
Eccentricity0.0003378
Argument of Perigee270.5158
Mean Anonmoly89.5403
Mean Motion15.5426576
Decay Rate1.774E-05
L11 43870U 98067PU 19016.38592259 .00001774 00000-0 33885-4 0 9992
L22 43870 51.6432 36.1840 0003378 270.5158 89.5403 15.54265760 3986

Live tracking and technical data element details for OBJECT PU (NORAD 43870). OBJECT PU can be tracked NOW for your location showing map with azimuth and elevation plus other details from your city location.

Track the satellite on the map from your city or location and see movement details for azimuth, elevation, latitude, longitude, range, height, and movement on the map or in text.







IsCatalogInMostPopularTable: catalog: 43870, numindb: 18
Update: records affected: 1



GetName: 43870 OBJECT PU

Hit Count: updated at: Thu, 17 Jan 2019 14:58:09 GMT